Hatteras, NC

3:21 AM EDT on April 24, 2018 (GMT -0400)
Mitchell

Weather History for KHSE - January, 2014

Change the Weather History Date:

Friday, January 10, 2014

  Actual Average Record
Temperature  
Mean Temperature 62 °F 45 °F  
Max Temperature 66 °F 52 °F 70 °F (2008)
Min Temperature 57 °F 39 °F 11 °F (1982)
Degree Days  
Heating Degree Days 3 20  
Month to date heating degree days 178 193  
Since 1 July heating degree days 880 1000  
Cooling Degree Days 0 0  
Month to date cooling degree days 0 0  
Year to date cooling degree days 0 0  
Growing Degree Days 12 (Base 50)    
Moisture  
Dew Point 54 °F    
Average Humidity 78    
Maximum Humidity 93    
Minimum Humidity 63    
Precipitation  
Precipitation 0.01 in 0.18 in 1.35 in (1983)
Month to date precipitation 1.26 1.67  
Year to date precipitation 1.26 1.67  
Snow  
Snow 0.00 in - - ()
Month to date snowfall T  
Since 1 July snowfall T  
Snow Depth 0.00 in    
Sea Level Pressure  
Sea Level Pressure 30.34 in    
Wind  
Wind Speed 11 mph (SE)    
Max Wind Speed 22 mph    
Max Gust Speed 32 mph    
Visibility 9 miles    
Events Rain    
T = Trace of Precipitation, MM = Missing Value Source: NWS Daily Summary

Daily Weather History Graph

Daily Weather History Graph

Search for Another Location

Airport or City:

Astronomy

Jan. 10, 2014 Rise Set
Actual Time 7:11 AM EST 5:08 PM EST
Civil Twilight 6:43 AM EST 5:36 PM EST
Nautical Twilight 6:12 AM EST 6:08 PM EST
Astronomical Twilight 5:41 AM EST 6:38 PM EST
Moon 1:08 PM EST (1/10) 2:20 AM EST (1/10)
Length of Visible Light 10h 53m
Length of Day
9h 57m
Waxing Gibbous, 75% of the Moon is Illuminated
Jan 10
Waxing Gibbous
Jan 15
Full
Jan 24
Last Quarter
Jan 30
New
Feb 6
First Quarter

Hourly Weather History & Observations

Time (EST) Temp. Dew Point Humidity Pressure Visibility Wind Dir Wind Speed Gust Speed Precip Events Conditions
12:51 AM 57.0 °F 46.9 °F 69% 30.48 in 10.0 mi SE 12.7 mph - N/A   Mostly Cloudy
1:51 AM 57.9 °F 48.0 °F 70% 30.46 in 10.0 mi ESE 11.5 mph - N/A   Mostly Cloudy
2:51 AM 57.9 °F 48.9 °F 72% 30.43 in 10.0 mi SE 10.4 mph - N/A   Scattered Clouds
3:51 AM 57.9 °F 50.0 °F 75% 30.42 in 10.0 mi SE 11.5 mph - N/A   Clear
4:51 AM 57.9 °F 50.0 °F 75% 30.41 in 10.0 mi ESE 10.4 mph - N/A   Clear
5:51 AM 57.0 °F 51.1 °F 81% 30.40 in 10.0 mi ESE 9.2 mph - N/A   Clear
6:51 AM 57.9 °F 52.0 °F 81% 30.40 in 10.0 mi SE 10.4 mph - N/A   Clear
7:51 AM 59.0 °F 52.0 °F 78% 30.42 in 10.0 mi SE 10.4 mph - N/A   Clear
8:51 AM 61.0 °F 53.1 °F 75% 30.41 in 10.0 mi SE 11.5 mph - N/A   Clear
9:51 AM 63.0 °F 53.1 °F 70% 30.41 in 10.0 mi SE 15.0 mph - N/A   Clear
10:51 AM 64.0 °F 53.1 °F 67% 30.40 in 10.0 mi SSE 11.5 mph - N/A   Clear
11:51 AM 66.0 °F 53.1 °F 63% 30.35 in 10.0 mi SE 11.5 mph - N/A   Clear
12:51 PM 64.9 °F 53.1 °F 65% 30.32 in 10.0 mi SE 11.5 mph - N/A   Partly Cloudy
1:51 PM 64.9 °F 54.0 °F 68% 30.30 in 10.0 mi SE 11.5 mph - N/A   Partly Cloudy
2:51 PM 64.0 °F 53.1 °F 67% 30.28 in 10.0 mi SE 9.2 mph - N/A   Clear
3:51 PM 63.0 °F 55.0 °F 75% 30.29 in 10.0 mi SSE 8.1 mph - N/A   Scattered Clouds
4:51 PM 62.1 °F 55.9 °F 80% 30.28 in 8.0 mi SSE 6.9 mph - N/A   Scattered Clouds
5:51 PM 62.1 °F 57.0 °F 84% 30.27 in 10.0 mi SSE 6.9 mph - N/A   Partly Cloudy
6:51 PM 63.0 °F 57.9 °F 84% 30.27 in 10.0 mi SSE 8.1 mph - N/A   Scattered Clouds
7:51 PM 63.0 °F 59.0 °F 87% 30.25 in 9.0 mi SSE 11.5 mph - N/A   Clear
8:51 PM 62.1 °F 60.1 °F 93% 30.24 in 7.0 mi SSE 11.5 mph - 0.01 in   Mostly Cloudy
9:51 PM 64.0 °F 61.0 °F 90% 30.22 in 7.0 mi SSE 13.8 mph - N/A   Mostly Cloudy
10:51 PM 64.0 °F 61.0 °F 90% 30.19 in 8.0 mi SSE 17.3 mph 25.3 mph N/A   Mostly Cloudy
11:51 PM 64.9 °F 62.1 °F 90% 30.17 in 5.0 mi SSE 19.6 mph 26.5 mph 0.00 in Rain Light Rain